Previsão horária em Abanilla

Hoje, 10 Abril, Sábado

Tempo Temperatura Precipitação Vento Pressão Humidade
00:00 +13°C° 0 mm 2 m/s 741 mmHg 87%
01:00 +13°C° 0.2 mm 1 m/s 740 mmHg 87%
02:00 +13°C° 0.2 mm 1 m/s 740 mmHg 87%
03:00 +13°C° 0.2 mm 1 m/s 739 mmHg 87%
04:00 +13°C° 0.9 mm 1 m/s 739 mmHg 89%
05:00 +13°C° 0.9 mm 1 m/s 739 mmHg 91%
06:00 +12°C° 0 mm 1 m/s 740 mmHg 92%
07:00 +13°C° 0.2 mm 1 m/s 740 mmHg 91%
08:00 +13°C° 0.2 mm 1 m/s 740 mmHg 90%
09:00 +13°C° 0.2 mm 1 m/s 740 mmHg 88%
10:00 +14°C° 0.1 mm 2 m/s 740 mmHg 87%
11:00 +14°C° 0.1 mm 2 m/s 740 mmHg 86%
12:00 +14°C° 0.1 mm 2 m/s 739 mmHg 84%
13:00 +15°C° 0 mm 2 m/s 739 mmHg 81%
14:00 +15°C° 0 mm 2 m/s 738 mmHg 78%
15:00 +16°C° 0 mm 2 m/s 738 mmHg 75%
16:00 +16°C° 0.1 mm 2 m/s 738 mmHg 77%
17:00 +15°C° 0.1 mm 2 m/s 738 mmHg 79%
18:00 +15°C° 0.1 mm 1 m/s 738 mmHg 81%
19:00 +14°C° 0 mm 1 m/s 738 mmHg 85%
20:00 +13°C° 0 mm 1 m/s 738 mmHg 89%
21:00 +13°C° 0 mm 1 m/s 739 mmHg 92%
22:00 +12°C° 0 mm 1 m/s 738 mmHg 93%
23:00 +12°C° 0 mm 1 m/s 738 mmHg 93%

Amanhã, 11 Abril, Domingo

Tempo Temperatura Precipitação Vento Pressão Humidade
00:00 +12°C° 0 mm 1 m/s 738 mmHg 94%
01:00 +12°C° 0 mm 1 m/s 738 mmHg 94%
02:00 +12°C° 0 mm 1 m/s 738 mmHg 94%
03:00 +12°C° 0 mm 1 m/s 738 mmHg 93%
04:00 +12°C° 0 mm 1 m/s 738 mmHg 93%
05:00 +12°C° 0 mm 1 m/s 738 mmHg 92%
06:00 +12°C° 0 mm 1 m/s 738 mmHg 91%
07:00 +14°C° 0 mm 1 m/s 738 mmHg 82%
08:00 +16°C° 0 mm 1 m/s 739 mmHg 73%
09:00 +19°C° 0 mm 1 m/s 739 mmHg 64%
10:00 +20°C° 0.2 mm 1 m/s 739 mmHg 58%
11:00 +21°C° 0.2 mm 1 m/s 739 mmHg 52%
12:00 +23°C° 0.2 mm 2 m/s 739 mmHg 47%
13:00 +21°C° 0.1 mm 2 m/s 738 mmHg 47%
14:00 +21°C° 0.1 mm 3 m/s 738 mmHg 48%
15:00 +21°C° 0.1 mm 4 m/s 738 mmHg 48%
16:00 +21°C° 0.1 mm 4 m/s 738 mmHg 51%
17:00 +20°C° 0.1 mm 3 m/s 738 mmHg 53%
18:00 +20°C° 0.1 mm 3 m/s 739 mmHg 56%
19:00 +19°C° 0 mm 2 m/s 739 mmHg 59%
20:00 +18°C° 0 mm 2 m/s 740 mmHg 62%
21:00 +19°C° 0 mm 1 m/s 741 mmHg 64%
22:00 +18°C° 0 mm 1 m/s 741 mmHg 65%
23:00 +18°C° 0 mm 1 m/s 741 mmHg 65%

Depois de amanhã, 12 Abril, Segunda-feira

Tempo Temperatura Precipitação Vento Pressão Humidade
00:00 +16°C° 0 mm 1 m/s 741 mmHg 66%
01:00 +16°C° 0 mm 2 m/s 741 mmHg 70%
02:00 +15°C° 0 mm 2 m/s 741 mmHg 74%
03:00 +13°C° 0 mm 3 m/s 742 mmHg 78%
04:00 +13°C° 0 mm 3 m/s 742 mmHg 80%
05:00 +13°C° 0 mm 2 m/s 743 mmHg 83%
06:00 +13°C° 0 mm 2 m/s 743 mmHg 85%
07:00 +13°C° 0 mm 3 m/s 744 mmHg 79%
08:00 +14°C° 0 mm 3 m/s 744 mmHg 72%
09:00 +14°C° 0 mm 4 m/s 745 mmHg 65%
10:00 +15°C° 0 mm 4 m/s 745 mmHg 62%
11:00 +15°C° 0 mm 5 m/s 745 mmHg 59%
12:00 +15°C° 0 mm 5 m/s 745 mmHg 57%
13:00 +15°C° 0 mm 5 m/s 745 mmHg 55%
14:00 +14°C° 0 mm 5 m/s 745 mmHg 54%
15:00 +14°C° 0 mm 5 m/s 745 mmHg 52%
16:00 +14°C° 0 mm 4 m/s 745 mmHg 54%
17:00 +13°C° 0 mm 4 m/s 745 mmHg 55%
18:00 +13°C° 0 mm 3 m/s 746 mmHg 56%
19:00 +13°C° 0 mm 2 m/s 746 mmHg 57%
20:00 +13°C° 0 mm 2 m/s 746 mmHg 59%
21:00 +12°C° 0 mm 1 m/s 747 mmHg 61%
22:00 +12°C° 0 mm 1 m/s 747 mmHg 62%
23:00 +12°C° 0 mm 1 m/s 747 mmHg 63%

13 Abril, Terça-feira

Tempo Temperatura Precipitação Vento Pressão Humidade
00:00 +12°C° 0 mm 1 m/s 747 mmHg 64%
01:00 +11°C° 0 mm 1 m/s 747 mmHg 64%
02:00 +11°C° 0 mm 1 m/s 746 mmHg 65%
03:00 +11°C° 0 mm 1 m/s 746 mmHg 65%
04:00 +11°C° 0 mm 1 m/s 746 mmHg 67%
05:00 +11°C° 0 mm 1 m/s 746 mmHg 69%
06:00 +11°C° 0 mm 1 m/s 747 mmHg 70%
07:00 +12°C° 0 mm 1 m/s 747 mmHg 67%
08:00 +14°C° 0 mm 2 m/s 747 mmHg 64%
09:00 +15°C° 0 mm 2 m/s 747 mmHg 61%
10:00 +16°C° 0 mm 3 m/s 747 mmHg 58%
11:00 +17°C° 0 mm 4 m/s 747 mmHg 55%
12:00 +18°C° 0 mm 4 m/s 746 mmHg 51%
13:00 +18°C° 0 mm 4 m/s 746 mmHg 51%
14:00 +17°C° 0 mm 5 m/s 746 mmHg 52%
15:00 +17°C° 0 mm 5 m/s 745 mmHg 52%
16:00 +16°C° 0 mm 5 m/s 745 mmHg 56%
17:00 +15°C° 0 mm 4 m/s 745 mmHg 60%
18:00 +14°C° 0 mm 4 m/s 745 mmHg 64%
19:00 +13°C° 0 mm 3 m/s 746 mmHg 67%
20:00 +12°C° 0 mm 3 m/s 746 mmHg 71%
21:00 +12°C° 0 mm 2 m/s 747 mmHg 75%
22:00 +12°C° 0 mm 2 m/s 746 mmHg 77%
23:00 +12°C° 0 mm 2 m/s 746 mmHg 78%

14 Abril, Quarta-feira

Tempo Temperatura Precipitação Vento Pressão Humidade
00:00 +12°C° 0 mm 2 m/s 746 mmHg 79%
01:00 +10°C° 0 mm 2 m/s 746 mmHg 80%
02:00 +11°C° 0 mm 1 m/s 745 mmHg 80%
03:00 +11°C° 0 mm 1 m/s 745 mmHg 81%
04:00 +11°C° 0 mm 1 m/s 745 mmHg 81%
05:00 +11°C° 0 mm 1 m/s 745 mmHg 81%
06:00 +11°C° 0 mm 1 m/s 744 mmHg 81%
07:00 +12°C° 0 mm 2 m/s 745 mmHg 74%
08:00 +12°C° 0 mm 3 m/s 745 mmHg 67%
09:00 +13°C° 0 mm 3 m/s 745 mmHg 59%
10:00 +14°C° 0 mm 4 m/s 744 mmHg 56%
11:00 +15°C° 0 mm 5 m/s 744 mmHg 52%
12:00 +16°C° 0 mm 5 m/s 744 mmHg 49%
13:00 +16°C° 0 mm 5 m/s 743 mmHg 49%
14:00 +16°C° 0 mm 5 m/s 743 mmHg 49%
15:00 +16°C° 0 mm 5 m/s 742 mmHg 49%
16:00 +15°C° 0 mm 5 m/s 742 mmHg 52%
17:00 +14°C° 0 mm 4 m/s 742 mmHg 56%
18:00 +13°C° 0 mm 4 m/s 742 mmHg 60%
19:00 +13°C° 0 mm 3 m/s 742 mmHg 62%
20:00 +12°C° 0 mm 3 m/s 743 mmHg 64%
21:00 +12°C° 0 mm 3 m/s 743 mmHg 66%
22:00 +12°C° 0.1 mm 3 m/s 743 mmHg 67%
23:00 +12°C° 0.1 mm 3 m/s 742 mmHg 69%

15 Abril, Quinta-feira

Tempo Temperatura Precipitação Vento Pressão Humidade
00:00 +12°C° 0.1 mm 3 m/s 742 mmHg 70%
01:00 +11°C° 0.4 mm 3 m/s 742 mmHg 72%
02:00 +11°C° 0.4 mm 3 m/s 741 mmHg 75%
03:00 +11°C° 0.4 mm 3 m/s 741 mmHg 78%
04:00 +11°C° 1.6 mm 3 m/s 741 mmHg 81%
05:00 +10°C° 1.6 mm 3 m/s 741 mmHg 84%
06:00 +10°C° 1.6 mm 3 m/s 741 mmHg 87%
07:00 +10°C° 1.8 mm 3 m/s 742 mmHg 87%
08:00 +10°C° 1.8 mm 3 m/s 742 mmHg 87%
09:00 +10°C° 1.8 mm 3 m/s 742 mmHg 86%
10:00 +10°C° 1.9 mm 4 m/s 742 mmHg 87%
11:00 +10°C° 1.9 mm 4 m/s 742 mmHg 88%
12:00 +10°C° 1.9 mm 4 m/s 742 mmHg 88%
13:00 +10°C° 1.1 mm 4 m/s 742 mmHg 87%
14:00 +10°C° 1.1 mm 4 m/s 742 mmHg 86%
15:00 +10°C° 1.1 mm 4 m/s 741 mmHg 85%
16:00 +10°C° 0.7 mm 4 m/s 741 mmHg 86%
17:00 +10°C° 0.7 mm 3 m/s 741 mmHg 87%
18:00 +10°C° 0.7 mm 3 m/s 742 mmHg 88%
19:00 +10°C° 0.4 mm 2 m/s 742 mmHg 87%
20:00 +10°C° 0.4 mm 2 m/s 742 mmHg 87%
21:00 +11°C° 0.4 mm 1 m/s 743 mmHg 87%
22:00 +10°C° 0.1 mm 1 m/s 742 mmHg 86%
23:00 +9°C° 0.1 mm 2 m/s 742 mmHg 84%
Mostrar mais